Tracking 30922 objects as of 2-Jul-2025
HD Live streaming from Space Station
objects crossing your sky now

SL-8 DEB

Track SL-8 DEB now!
10-day predictions


NORAD ID: 16867
Int'l Code: 1986-052E
Perigee: 561.9 km
Apogee: 572.3 km
Inclination: 74.0 °
Period: 95.9 minutes
Semi major axis: 6938 km
RCS: 0.0117 m2 (small)
Launch date: July 16, 1986
Source: Commonwealth of Independent States (former USSR) (CIS)
Launch site: PLESETSK MISSILE AND SPACE COMPLEX (PKMTR)

Note: This is SATELLITE DEBRIS
Your satellite tracking list
Your tracking list is empty




NASA's NSSDC Master Catalog

Two Line Element Set (TLE):
1 16867U 86052E   25181.53377320  .00006308  00000-0  48055-3 0  9998
2 16867  74.0109 222.5258 0007508 215.2844 144.7848 15.02249782 75922
Source of the keplerian elements: AFSPC